• In Hungary
  • List of Countries
  • For 7 days
  • Water Temperature
  • Satellite Maps
  • Weather Map
  • News
  • Weather Widgets
  • user-avatar
    Login

    Hourly Weather Albuquerque

    Today, 18 June, Monday

    Time Temperature Precipitation Wind Pressure Humidity
    00:00 +25°C° 0 mm 5 mps 636 mmHg 38%
    01:00 +23°C° 0 mm 4 mps 636 mmHg 42%
    02:00 +22°C° 0 mm 3 mps 636 mmHg 45%
    03:00 +21°C° 0 mm 3 mps 636 mmHg 47%
    04:00 +21°C° 0 mm 2 mps 636 mmHg 49%
    05:00 +20°C° 0 mm 2 mps 637 mmHg 52%
    06:00 +23°C° 0 mm 1 mps 637 mmHg 47%
    07:00 +24°C° 0 mm 1 mps 637 mmHg 42%
    08:00 +25°C° 0 mm 1 mps 638 mmHg 37%
    09:00 +26°C° 0 mm 2 mps 638 mmHg 33%
    10:00 +28°C° 0 mm 2 mps 638 mmHg 30%
    11:00 +29°C° 0 mm 2 mps 639 mmHg 27%
    12:00 +30°C° 0 mm 3 mps 638 mmHg 24%
    13:00 +31°C° 0 mm 3 mps 638 mmHg 22%
    14:00 +33°C° 0 mm 4 mps 638 mmHg 20%
    15:00 +33°C° 0 mm 4 mps 638 mmHg 19%
    16:00 +33°C° 0 mm 4 mps 638 mmHg 19%
    17:00 +34°C° 0 mm 4 mps 637 mmHg 18%
    18:00 +31°C° 0 mm 3 mps 637 mmHg 21%
    19:00 +30°C° 0 mm 3 mps 637 mmHg 23%
    20:00 +29°C° 0 mm 3 mps 637 mmHg 25%
    21:00 +28°C° 0 mm 3 mps 637 mmHg 27%
    22:00 +28°C° 0 mm 3 mps 637 mmHg 28%
    23:00 +27°C° 0 mm 4 mps 638 mmHg 29%

    Tomorrow, 19 June, Tuesday

    Time Temperature Precipitation Wind Pressure Humidity
    00:00 +27°C° 0 mm 3 mps 637 mmHg 30%
    01:00 +26°C° 0 mm 3 mps 637 mmHg 30%
    02:00 +25°C° 0 mm 3 mps 637 mmHg 31%
    03:00 +24°C° 0 mm 3 mps 637 mmHg 31%
    04:00 +24°C° 0 mm 2 mps 636 mmHg 32%
    05:00 +23°C° 0 mm 2 mps 636 mmHg 33%
    06:00 +24°C° 0 mm 2 mps 637 mmHg 29%
    07:00 +26°C° 0 mm 2 mps 637 mmHg 25%
    08:00 +28°C° 0 mm 2 mps 638 mmHg 21%
    09:00 +29°C° 0 mm 3 mps 638 mmHg 19%
    10:00 +30°C° 0 mm 3 mps 638 mmHg 18%
    11:00 +32°C° 0 mm 4 mps 638 mmHg 16%
    12:00 +33°C° 0 mm 4 mps 638 mmHg 14%
    13:00 +34°C° 0 mm 5 mps 638 mmHg 13%
    14:00 +35°C° 0 mm 5 mps 638 mmHg 11%
    15:00 +35°C° 0 mm 5 mps 638 mmHg 11%
    16:00 +35°C° 0 mm 6 mps 637 mmHg 10%
    17:00 +36°C° 0 mm 6 mps 637 mmHg 9%
    18:00 +34°C° 0 mm 6 mps 637 mmHg 10%
    19:00 +32°C° 0 mm 5 mps 637 mmHg 11%
    20:00 +30°C° 0 mm 5 mps 637 mmHg 12%
    21:00 +28°C° 0 mm 4 mps 637 mmHg 14%
    22:00 +27°C° 0 mm 4 mps 637 mmHg 15%
    23:00 +26°C° 0 mm 4 mps 637 mmHg 17%

    Day after tomorrow, 20 June, Wednesday

    Time Temperature Precipitation Wind Pressure Humidity
    00:00 +25°C° 0 mm 3 mps 636 mmHg 18%
    01:00 +24°C° 0 mm 3 mps 636 mmHg 19%
    02:00 +24°C° 0 mm 2 mps 636 mmHg 20%
    03:00 +23°C° 0 mm 2 mps 636 mmHg 21%
    04:00 +23°C° 0 mm 2 mps 636 mmHg 21%
    05:00 +21°C° 0 mm 2 mps 636 mmHg 22%
    06:00 +24°C° 0 mm 2 mps 637 mmHg 20%
    07:00 +26°C° 0 mm 2 mps 638 mmHg 19%
    08:00 +27°C° 0 mm 1 mps 638 mmHg 17%
    09:00 +29°C° 0 mm 2 mps 638 mmHg 16%
    10:00 +30°C° 0 mm 2 mps 639 mmHg 14%
    11:00 +31°C° 0 mm 2 mps 639 mmHg 13%
    12:00 +33°C° 0 mm 3 mps 639 mmHg 12%
    13:00 +34°C° 0 mm 4 mps 638 mmHg 11%
    14:00 +35°C° 0 mm 5 mps 638 mmHg 11%
    15:00 +35°C° 0 mm 5 mps 638 mmHg 10%
    16:00 +35°C° 0 mm 6 mps 637 mmHg 10%
    17:00 +35°C° 0 mm 7 mps 637 mmHg 10%
    18:00 +34°C° 0 mm 6 mps 637 mmHg 12%
    19:00 +32°C° 0 mm 5 mps 637 mmHg 14%
    20:00 +30°C° 0 mm 5 mps 637 mmHg 16%
    21:00 +29°C° 0 mm 4 mps 637 mmHg 17%
    22:00 +28°C° 0 mm 4 mps 638 mmHg 19%
    23:00 +27°C° 0 mm 3 mps 638 mmHg 21%

    21 June, Thursday

    Time Temperature Precipitation Wind Pressure Humidity
    00:00 +26°C° 0 mm 3 mps 638 mmHg 23%
    01:00 +25°C° 0 mm 3 mps 637 mmHg 25%
    02:00 +24°C° 0 mm 2 mps 637 mmHg 26%
    03:00 +24°C° 0 mm 2 mps 637 mmHg 32%
    04:00 +22°C° 0 mm 3 mps 638 mmHg 38%
    05:00 +21°C° 0 mm 3 mps 638 mmHg 45%
    06:00 +24°C° 0 mm 3 mps 638 mmHg 44%
    07:00 +25°C° 0 mm 4 mps 639 mmHg 44%
    08:00 +26°C° 0 mm 4 mps 640 mmHg 44%
    09:00 +27°C° 0 mm 3 mps 640 mmHg 40%
    10:00 +29°C° 0 mm 2 mps 640 mmHg 36%
    11:00 +30°C° 0 mm 2 mps 640 mmHg 32%
    12:00 +31°C° 0 mm 2 mps 640 mmHg 28%
    13:00 +32°C° 0 mm 2 mps 639 mmHg 25%
    14:00 +34°C° 0 mm 2 mps 639 mmHg 21%
    15:00 +35°C° 0 mm 2 mps 639 mmHg 20%
    16:00 +35°C° 0 mm 2 mps 639 mmHg 18%
    17:00 +36°C° 0 mm 3 mps 639 mmHg 16%
    18:00 +34°C° 0 mm 3 mps 638 mmHg 17%
    19:00 +32°C° 0 mm 2 mps 638 mmHg 19%
    20:00 +30°C° 0 mm 2 mps 638 mmHg 21%
    21:00 +29°C° 0 mm 2 mps 638 mmHg 23%
    22:00 +28°C° 0 mm 1 mps 638 mmHg 26%
    23:00 +27°C° 0 mm 1 mps 638 mmHg 28%

    22 June, Friday

    Time Temperature Precipitation Wind Pressure Humidity
    00:00 +27°C° 0 mm 1 mps 637 mmHg 31%
    01:00 +26°C° 0 mm 1 mps 637 mmHg 34%
    02:00 +25°C° 0 mm 1 mps 636 mmHg 37%
    03:00 +25°C° 0 mm 1 mps 636 mmHg 39%
    04:00 +24°C° 0 mm 1 mps 636 mmHg 40%
    05:00 +24°C° 0 mm 2 mps 636 mmHg 42%
    06:00 +26°C° 0 mm 3 mps 637 mmHg 37%
    07:00 +28°C° 0 mm 3 mps 638 mmHg 31%
    08:00 +30°C° 0 mm 4 mps 639 mmHg 26%
    09:00 +33°C° 0 mm 5 mps 639 mmHg 22%
    10:00 +35°C° 0 mm 5 mps 639 mmHg 19%
    11:00 +36°C° 0 mm 6 mps 639 mmHg 15%
    12:00 +39°C° 0 mm 6 mps 638 mmHg 13%
    13:00 +40°C° 0 mm 6 mps 638 mmHg 11%
    14:00 +41°C° 0 mm 6 mps 638 mmHg 9%
    15:00 +40°C° 0 mm 7 mps 637 mmHg 9%
    16:00 +40°C° 0 mm 7 mps 637 mmHg 9%
    17:00 +40°C° 0 mm 8 mps 636 mmHg 8%
    18:00 +38°C° 0 mm 6 mps 636 mmHg 10%
    19:00 +36°C° 0 mm 5 mps 636 mmHg 11%
    20:00 +34°C° 0 mm 4 mps 635 mmHg 12%
    21:00 +33°C° 0 mm 4 mps 635 mmHg 12%
    22:00 +32°C° 0 mm 5 mps 635 mmHg 13%
    23:00 +30°C° 0 mm 5 mps 635 mmHg 13%

    23 June, Saturday

    Time Temperature Precipitation Wind Pressure Humidity
    00:00 +29°C° 0 mm 5 mps 634 mmHg 13%
    01:00 +28°C° 0 mm 6 mps 634 mmHg 14%
    02:00 +27°C° 0 mm 6 mps 634 mmHg 14%
    03:00 +26°C° 0 mm 5 mps 634 mmHg 15%
    04:00 +26°C° 0 mm 5 mps 634 mmHg 16%
    05:00 +25°C° 0 mm 4 mps 633 mmHg 17%
    06:00 +27°C° 0 mm 4 mps 634 mmHg 15%
    07:00 +29°C° 0 mm 4 mps 635 mmHg 13%
    08:00 +32°C° 0 mm 4 mps 635 mmHg 12%
    09:00 +33°C° 0 mm 5 mps 636 mmHg 10%
    10:00 +35°C° 0 mm 6 mps 636 mmHg 9%
    11:00 +38°C° 0 mm 7 mps 636 mmHg 8%
    12:00 +38°C° 0 mm 7 mps 636 mmHg 7%
    13:00 +39°C° 0 mm 7 mps 635 mmHg 7%
    14:00 +40°C° 0 mm 7 mps 635 mmHg 6%
    15:00 +39°C° 0 mm 7 mps 635 mmHg 6%
    16:00 +39°C° 0 mm 8 mps 635 mmHg 6%
    17:00 +39°C° 0 mm 8 mps 634 mmHg 7%
    18:00 +36°C° 0 mm 7 mps 634 mmHg 8%
    19:00 +34°C° 0 mm 6 mps 634 mmHg 9%
    20:00 +33°C° 0 mm 5 mps 634 mmHg 10%
    21:00 +32°C° 0 mm 6 mps 634 mmHg 13%
    22:00 +30°C° 0 mm 7 mps 634 mmHg 16%
    23:00 +29°C° 0 mm 9 mps 634 mmHg 19%
    Show more